SCP
0 0 0 0 0 0 0 0 0 0 0 0 0 0 0 0 0 0 0 0 0 0 0 0 0 0 0 0 0 0 0 0 0 0 0 0 0 0 0 0 0 0 0 0 0 0 0 0 0 0 0 0 0 0
0 0 0 0 0 0 0 0 0 0 0 0 0 0 0 -0 0 0 0 0 0 0 0 0 0 0 0 0 0 0 0 0 0 0 0 0 0 0 0 0 0 0 0 0 0 0 0 0 0 0 0 0 0 0
0 0 0 0 0 0 0 0 0 0 0 0 0 0 0 0 0 0 0 0 0 0 0 0 0 0 0 0 0 0 0 0 0 0 0 0 0 0 0 0 0 0 0 0 0 0 0 0 0 0 0 0 0 0
0 0 0 0 0 0 0 0 0 0 0 0 0 0 0 0 0 0 0 0 0 0 0 0 0 0 0 0 0 0 0 0 0 0 0 0 0 0 0 0 0 0 0 0 0 0 0 0 0 0 0 0 0 0
0 0 0 0 0 0 0 0 0 0 0 0 0 0 0 0 0 0 0 0 0 0 0 0 0 0 0 0 0 0 0 0 0 0 0 0 0 0 0 0 0 0 0 0 0 0 0 0 0 0 0 0 0 0
0 0 0 0 0 0 0 0 0 0 0 0 0 0 0 0 0 0 0 0 0 0 0 0 0 0 0 0 0 0 0 0 0 0 0 0 0 0 0 0 0 0 0 0 0 0 0 0 0 0 0 0 0 0
0 0 0 0 0 0 0 0 0 0 0 0 0 0 0 0 0 0 0 0 0 0 0 0 0 0 0 0 0 0 0 0 0 0 0 0 0 0 0 0 0 0 0 0 0 0 0 0 0 0 0 0 0 0
0 0 0 0 0 0 0 0 0 0 0 0 0 0 0 0 0 0 0 0 0 0 0 0 0 0 0 0 0 0 0 0 0 0 0 0 0 0 0 0 0 0 0 0 0 0 0 0 0 0 0 0 0 0
0 0 0 0 0 0 0 0 0 0 0 0 0 0 0 0 0 0 0 0 0 0 0 0 0 0 0 0 0 0 0 0 0 0 0 0 0 0 0 0 0 0 0 0 0 0 0 0 0 0 0 0 0 0
0 0 0 -0 0 0 0 0 0 0 0 0 0 0 0 0 0 0 0 0 0 0 0 0 0 0 0 0 0 0 0 0 0 0 0 0 0 0 0 0 0 0 0 0 0 0 0 0 0 0 0 0 0 0
0 0 0 0 0 0 0 0 0 0 0 0 0 0 0 0 0 0 0 0 0 0 0 0 0 0 0 0 0 0 0 0 0 0 0 0 0 0 0 0 0 0 0 0 0 0 0 0 0 0 0 0 0 0
0 0 0 0 0 0 0 0 0 0 0 0 0 0 0 0 0 0 0 0 0 0 0 0 0 0 0 0 0 0 0 0 0 0 0 0 0 0 0 0 0 0 0 0 0 0 0 0 0 0 0 0 0 0
0 0 0 0 0 0 0 0 0 0 0 0 0 0 0 0 0 0 0 0 0 0 0 0 0 0 0 0 0 0 0 0 0 0 0 0 0 0 0 0 0 0 0 0 0 0 0 0 0 0 0 0 0 0
0 0 0 0 0 0 0 0 0 0 0 0 0 0 0 0 0 0 0 0 0 0 0 0 0 0 0 0 0 0 0 0 0 0 0 0 0 0 0 0 0 0 0 0 0 0 0 0 0 0 0 0 0 0
0 0 0 0 0 0 0 0 0 0 0 0 0 0 0 0 0 0 0 0 0 0 0 0 0 0 0 0 0 0 0 0 0 0 0 0 0 0 0 0 0 0 0 0 0 0 0 0 0 0 0 0 0 0
0 0 0 0 0 0 0 0 0 0 0 0 0 0 0 0 0 0 0 0 0 0 0 0 0 0 0 0 0 0 0 0 0 0 0 0 0 0 0 0 0 0 0 0 0 0 0 0 0 0 0 0 0 0
0 0 0 0 0 0 0 0 0 0 0 0 0 0 0 0 0 0 0 0 0 0 0 0 0 0 0 0 0 0 0 0 0 0 0 0 0 0 0 0 0 0 0 0 0 0 0 0 0 0 0 0 0 0
0 0 0 0 0 0 0 0 0 0 0 0 0 0 0 0 0 0 0 0 0 0 0 0 0 0 0 0 0 0 0 0 0 0 0 0 0 0 0 0 0 0 0 0 0 0 0 0 0 0 0 0 0 0
0 0 0 0 0 0 0 0 0 0 0 0 0 0 0 0 0 0 0 0 0 0 0 0 0 0 0 0 0 0 0 0 0 0 0 0 0 0 0 0 0 0 0 0 0 0 0 0 0 0 0 0 0 0
0 0 0 0 0 0 0 0 0 0 0 0 0 0 0 0 0 0 0 0 0 0 0 0 0 0 0 0 0 0 0 0 0 0 0 0 0 0 0 0 0 0 0 0 0 0 0 0 0 0 0 0 0 0
0 0 0 0 0 0 0 0 0 0 0 0 0 0 0 0 0 0 0 0 0 0 0 0 0 0 0 0 0 0 0 0 0 0 0 0 0 0 0 0 0 0 0 0 0 0 0 0 0 0 0 0 0 0
0 0 0 0 0 0 0 0 0 0 0 0 0 0 0 0 0 0 0 0 0 0 0 0 0 0 0 0 0 0 0 0 0 0 0 0 0 0 0 0 0 0 0 0 0 0 0 0 0 0 0 0 0 0
0 0 0 0 0 0 0 0 0 0 0 0 0 0 0 0 0 0 0 0 0 0 0 0 0 0 0 0 0 0 0 0 0 0 0 0 0 0 0 0 0 0 0 0 0 0 0 0 0 0 0 0 0 0
0 0 0 0 0 0 0 0 0 0 0 0 0 0 0 0 0 0 0 0 0 0 0 0 0 0 0 0 0 0 0 0 0 0 0 0 0 0 0 0 0 0 0 0 0 0 0 0 0 0 0 0 0 0
0 0 0 0 0 0 0 0 0 0 0 0 0 0 0 0 0 0 0 0 0 0 0 0 0 0 0 0 0 0 0 0 0 0 0 0 0 0 0 0 0 0 0 0 0 0 0 0 0 0 0 0 0 0
-0 0 0 0 0 0 0 0 0 0 0 0 0 0 0 0 0 0 0 0 0 0 0 0 0 0 0 0 0 0 0 0 0 0 0 0 0 0 0 0 0 0 0 0 0 0 0 0 0 0 0 0 0 0
0 0 0 0 0 0 0 0 0 0 0 0 0 0 0 0 0 0 0 0 0 0 0 0 0 0 0 0 0 0 0 0 0 0 0 0 0 0 0 0 0 0 0 0 0 0 0 0 0 0 0 0 0 0
0 0 0 0 0 0 0 0 0 0 0 0 0 0 0 0 0 0 0 0 0 0 0 0 0 0 0 0 0 0 0 0 0 0 0 0 0 0 0 0 0 0 0 0 0 0 0 0 0 0 0 0 0 0
0 0 0 0 0 0 0 0 0 0 0 0 0 0 0 0 0 0 0 0 0 0 0 0 0 0 0 0 0 0 0 0 0 0 0 0 0 0 0 0 0 0 0 0 0 0 0 0 0 0 0 0 0 0
0 0 0 0 0 0 0 0 0 0 0 0 0 0 0 0 0 0 0 0 0 0 0 0 0 0 0 0 0 0 0 0 0 0 0 0 0 0 0 0 0 0 0 0 0 0 0 0 0 0 0 0 0 0
0 0 0 0 0 0 0 0 0 0 0 0 0 0 0 0 0 0 0 0 0 0 0 0 0 0 0 0 0 0 0 0 0 0 0 0 0 0 0 0 0 0 0 0 0 0 0 0 0 0 0 0 0 0
0 0 0 0 0 0 0 0 0 0 0 0 0 0 0 0 0 0 0 0 0 0 0 0 0 0 0 0 0 0 0 0 0 0 0 0 0 0 0 0 0 0 0 0 0 0 0 0 0 0 0 0 0 0
0 0 0 0 0 0 0 0 0 0 0 0 0 0 0 0 0 0 0 0 0 0 0 0 0 0 0 0 0 0 0 0 0 0 0 0 0 0 0 0 0 0 0 0 0 0 0 0 0 0 0 0 0 0
Wind_Speed_500mb
63 62 58 58 55 50 60 44 44 51 47 44 39 38 41 42 39 37 32 31 34 11 5 17 10 14 20 21 10 21 13 0 5 6 8 8 6 13 4 7 14 14 16 9 5 5 15 26 12 13 12 11 15 23
65 58 66 60 57 57 57 59 62 55 52 48 42 45 48 45 43 44 37 35 34 17 7 25 26 18 27 34 33 51 14 17 23 7 1 6 3 3 6 7 3 3 14 12 22 14 11 38 24 52 52 37 35 39
66 63 59 63 51 53 62 63 54 59 56 52 52 51 51 62 59 54 48 40 35 24 25 35 29 26 31 29 29 22 13 21 22 16 17 6 7 7 7 8 4 9 15 9 9 12 23 32 50 40 38 49 57 52
65 65 62 67 55 51 48 42 51 56 62 50 52 52 51 46 52 51 57 48 39 12 8 12 19 35 46 43 41 40 29 37 21 26 10 6 6 17 8 7 9 20 14 7 12 30 36 36 49 62 72 71 69 65
66 65 66 64 59 60 61 51 41 32 36 45 55 52 45 49 52 52 50 56 51 34 10 3 17 37 35 54 57 49 49 44 41 14 4 5 11 7 1 4 12 43 25 11 17 51 41 43 59 65 56 60 55 49
67 67 61 64 64 60 59 65 50 46 35 33 31 32 39 46 46 38 30 62 57 54 12 5 20 29 35 44 58 74 65 52 39 19 8 12 11 24 7 9 59 52 57 71 51 75 62 72 73 74 71 74 67 59
59 64 65 64 61 58 57 58 63 59 54 48 41 38 33 28 33 31 7 6 37 62 20 6 6 18 45 49 52 51 57 42 35 17 18 15 13 30 6 26 18 39 61 68 70 65 58 76 56 69 59 56 57 60
50 69 60 60 59 58 61 56 56 53 47 40 35 33 33 34 33 36 44 15 32 49 14 6 4 0 26 19 14 29 26 35 29 23 12 15 19 16 16 4 43 73 79 63 73 72 76 76 67 52 56 59 57 53
38 37 56 57 57 53 47 48 47 51 48 42 34 27 28 34 33 36 32 36 36 29 5 7 9 9 30 11 18 16 25 8 19 12 10 21 8 15 18 32 52 77 71 72 66 59 56 58 62 61 57 56 55 50
38 48 46 68 58 52 45 41 41 35 34 33 30 16 13 26 30 21 25 26 31 27 27 8 12 4 18 8 6 9 6 5 7 9 22 10 14 80 59 47 60 76 81 64 60 59 58 56 55 55 55 49 45 44
26 39 30 60 51 50 45 41 38 37 37 39 22 23 16 29 38 24 17 16 15 9 22 25 42 9 22 7 6 16 6 7 7 9 14 8 13 45 72 80 99 104 89 72 68 63 60 56 51 41 43 43 43 41
1 30 54 56 49 44 44 43 39 41 34 29 20 19 25 21 17 11 11 6 10 13 13 11 17 36 26 17 7 14 9 7 11 11 8 7 23 60 60 79 94 82 79 78 68 61 53 44 40 36 38 38 35 34
19 33 37 32 30 29 27 34 41 46 39 35 18 20 13 13 11 9 19 5 6 6 22 20 5 24 16 18 7 10 14 12 15 10 8 11 36 54 65 67 70 65 64 56 50 45 41 37 32 30 30 32 32 30
4 8 21 24 24 23 24 31 37 43 42 15 15 12 9 7 7 7 10 9 12 19 43 31 12 8 13 9 6 8 7 7 10 9 15 16 51 66 48 52 60 64 54 49 44 38 34 32 30 29 29 27 26 24
5 12 16 12 14 21 28 34 40 54 19 10 9 9 9 7 3 0 4 5 9 18 40 13 7 11 4 8 7 7 5 8 10 11 8 11 23 32 47 52 53 49 45 39 34 32 31 28 26 24 23 21 19 18
4 7 13 14 26 22 20 28 41 30 21 21 13 6 4 6 6 4 4 6 7 26 20 9 6 7 10 7 9 14 13 14 9 7 8 19 19 19 23 31 32 30 32 30 27 26 24 22 19 18 16 15 15 17
8 3 3 9 17 25 30 24 17 13 8 9 3 15 21 7 11 14 16 10 8 14 3 3 8 12 3 5 6 7 9 5 1 3 4 3 6 10 17 20 20 23 19 18 19 19 18 17 17 17 15 14 14 13
5 7 4 8 15 22 24 19 7 2 7 8 4 4 9 11 15 14 18 20 19 16 8 5 4 7 6 7 6 2 8 3 6 5 7 11 15 17 17 16 15 14 16 17 17 17 17 15 12 10 8 9 10 11
5 9 16 14 14 15 12 9 4 7 5 5 6 5 4 3 9 10 13 17 17 12 12 6 5 4 3 2 2 5 6 4 1 3 3 9 10 12 13 15 16 16 17 16 16 15 13 11 9 6 6 7 6 6
7 8 14 11 14 6 8 8 7 9 4 6 7 5 5 5 6 7 7 10 12 4 4 4 4 5 6 6 7 6 6 5 2 3 3 9 13 16 17 17 15 15 15 14 12 10 9 8 7 6 5 4 3 3
21 20 9 10 7 9 10 7 9 8 8 7 9 6 5 7 7 7 8 8 10 11 4 9 8 8 7 5 4 3 4 2 3 6 8 12 17 17 18 19 18 16 13 11 9 10 10 9 7 7 6 4 5 6
18 15 12 7 7 9 12 13 10 8 6 8 6 6 8 4 7 9 8 16 11 10 10 11 10 9 6 6 4 3 3 2 2 3 5 11 19 18 17 15 14 14 13 13 12 10 8 7 6 6 6 5 6 7
24 17 8 9 8 10 6 7 5 7 7 1 4 5 4 4 5 6 10 11 10 22 21 14 12 9 6 4 2 1 1 1 1 3 9 10 15 15 15 15 15 13 11 9 8 8 8 7 7 6 5 4 6 8
14 10 13 12 17 4 4 8 7 7 7 6 4 5 4 6 11 8 7 7 17 27 19 14 13 9 6 5 4 1 2 5 6 10 14 12 13 18 20 15 12 11 8 6 6 6 6 5 4 3 4 7 9 11
8 21 15 13 16 9 10 8 7 7 6 6 4 4 4 8 5 7 5 13 25 30 25 17 15 11 8 6 5 6 9 11 13 13 19 19 15 13 12 9 7 5 4 4 6 7 6 7 6 6 8 11 13 14
16 19 12 7 11 7 7 5 7 5 5 5 4 6 6 4 9 6 4 23 23 26 25 19 19 15 15 13 13 14 15 14 12 11 11 10 9 8 3 2 3 1 2 4 6 8 9 9 11 12 13 15 18 20
11 10 14 17 9 5 6 7 3 6 9 9 6 10 5 9 7 4 14 20 31 25 12 10 14 17 18 16 13 11 10 9 8 7 5 3 2 1 2 4 4 4 5 6 7 8 10 14 17 18 20 20 21 25
11 21 8 23 11 15 6 6 8 8 6 13 4 12 7 6 2 16 13 24 19 13 12 13 14 14 14 13 11 8 7 6 5 7 9 8 8 8 6 6 5 6 6 8 10 12 15 18 21 23 27 31 32 32
12 27 12 8 8 14 13 8 4 7 12 7 4 6 6 9 20 19 18 17 16 14 12 14 15 12 10 8 8 7 5 4 2 4 5 6 4 4 6 9 12 15 17 18 20 23 26 29 32 37 40 44 47 50
17 29 11 10 8 9 8 11 7 10 18 20 26 43 35 36 44 36 33 30 28 28 25 21 17 13 13 10 11 11 11 11 11 8 6 7 10 13 15 17 20 24 28 31 34 35 36 40 44 47 52 56 58 60
20 18 6 11 7 8 11 13 18 18 15 19 25 23 18 28 52 56 53 49 46 41 38 37 33 26 20 18 14 8 8 10 14 16 18 21 24 27 31 34 37 41 44 46 49 50 52 54 54 56 58 59 60 59
23 15 8 5 5 10 13 8 5 7 7 6 7 10 11 9 10 21 48 30 40 42 41 42 38 25 19 18 18 19 22 27 29 29 31 33 36 39 42 45 46 48 49 49 52 54 55 56 58 59 61 63 63 62
5 10 11 6 5 6 16 10 3 6 8 6 7 13 15 9 10 10 38 41 34 35 38 40 44 43 28 30 27 28 34 44 44 42 42 43 46 48 51 52 53 56 57 59 61 61 62 64 66 68 69 70 70 68
Wind_Direction_500mb
250 248 249 244 236 235 234 229 225 225 219 213 208 205 207 212 209 212 227 213 209 225 218 210 187 169 140 159 138 152 99 227 66 119 145 192 160 214 131 183 175 157 160 192 139 214 275 195 120 173 207 202 222 243
240 246 243 246 239 232 229 234 237 234 218 212 225 222 207 205 204 211 216 206 206 211 238 220 224 193 204 199 168 165 174 159 165 109 193 105 197 73 156 226 120 234 192 183 190 203 229 192 210 221 240 245 244 240
241 237 235 234 233 235 235 235 222 225 228 229 229 224 226 213 209 207 217 214 204 224 267 252 235 215 213 203 205 158 205 172 183 158 157 176 189 120 152 238 132 258 179 212 84 221 226 213 225 235 241 255 270 263
239 235 230 231 227 230 235 240 229 225 223 216 222 226 218 215 217 211 217 218 203 158 214 246 225 229 227 218 214 212 222 199 191 178 157 154 160 187 192 172 183 212 161 190 266 267 258 249 249 260 270 274 271 272
235 233 233 233 229 233 231 233 227 223 228 218 216 220 220 222 225 212 218 232 228 202 196 301 243 238 227 214 216 218 223 209 178 165 142 205 151 127 30 115 239 225 233 224 241 253 245 256 268 270 267 271 268 271
235 229 231 226 221 226 225 225 226 224 214 215 211 219 219 219 224 219 218 231 231 221 215 208 230 213 213 218 219 218 218 206 196 184 176 214 197 171 174 218 241 241 247 247 246 257 262 266 272 270 267 271 265 272
225 228 224 221 223 224 221 217 224 229 218 224 229 224 222 223 215 209 203 205 211 215 212 197 249 208 212 217 218 217 216 210 208 204 208 191 164 190 196 239 228 245 255 256 254 257 260 264 254 266 267 269 269 268
239 217 216 217 219 219 221 215 213 206 203 205 208 210 214 216 224 230 241 229 178 190 206 188 231 216 191 180 177 189 198 202 209 212 205 197 170 196 239 215 240 252 258 258 259 258 256 265 266 263 267 268 262 260
230 227 217 213 210 205 207 209 200 187 194 196 204 212 213 217 217 224 225 229 239 222 233 167 163 225 165 138 168 171 177 195 195 202 193 167 175 220 219 212 233 248 244 248 261 264 260 258 267 271 268 262 257 257
253 232 228 203 197 193 196 198 203 191 185 178 186 179 201 216 206 189 192 198 206 216 209 204 191 181 163 133 124 120 192 204 194 224 152 211 229 240 238 241 247 253 255 248 245 252 258 259 263 265 259 257 251 247
240 217 215 174 175 178 178 180 179 177 173 175 174 193 188 165 166 182 200 192 179 199 198 215 188 143 176 138 165 197 181 177 191 237 181 196 241 242 241 241 246 252 257 255 256 262 262 266 267 258 250 246 247 252
12 176 159 162 154 160 172 175 176 182 185 182 168 160 176 194 187 194 180 155 186 209 190 160 187 189 168 166 137 174 181 183 220 142 160 218 245 247 244 242 246 249 252 255 255 254 252 247 250 246 240 240 242 243
116 117 124 134 153 165 173 179 181 197 189 167 178 178 198 194 204 216 170 203 173 181 169 160 157 161 144 176 180 180 193 205 112 183 216 223 245 253 247 245 245 246 245 241 235 228 231 234 234 232 229 228 232 234
60 100 134 162 170 177 182 184 183 190 179 170 164 192 205 197 226 180 183 181 207 182 175 163 120 147 164 173 172 205 192 128 197 203 222 236 243 254 256 242 235 234 227 222 221 222 225 227 227 225 223 223 227 231
149 167 170 172 192 199 197 196 189 192 174 166 171 206 206 216 234 242 195 171 181 176 165 120 106 149 185 206 198 95 150 214 214 223 231 295 288 266 249 234 224 219 214 212 213 217 221 221 220 219 218 219 224 241
222 191 172 201 198 195 206 206 208 214 184 174 192 118 91 74 314 128 71 106 133 161 145 133 163 189 206 185 161 202 164 209 235 214 302 315 302 270 237 218 205 201 196 198 204 209 210 211 214 219 223 229 242 256
37 75 315 217 223 209 208 203 203 211 220 190 150 174 172 156 177 164 150 146 154 162 192 158 186 214 112 218 219 169 200 226 131 230 241 214 191 156 177 182 187 176 188 192 192 196 204 207 210 213 223 242 255 267
280 207 76 186 210 195 182 193 233 180 65 57 88 124 161 145 148 156 162 168 160 178 162 222 350 219 210 193 249 306 25 103 138 155 147 147 119 125 140 152 160 173 181 183 185 188 192 198 208 222 244 266 282 295
290 238 224 207 191 181 161 154 155 99 84 69 85 105 141 148 180 200 203 198 188 171 158 166 198 204 219 49 293 19 47 31 36 256 154 112 136 146 153 153 158 162 165 168 169 175 185 197 213 229 244 255 271 289
162 246 269 219 192 140 100 72 93 97 117 115 107 99 79 86 143 154 168 183 171 147 74 39 50 14 8 6 353 340 356 345 148 143 148 149 150 147 142 141 147 157 164 167 174 184 190 196 206 213 218 219 235 267
255 265 242 181 142 90 89 87 74 80 103 93 98 75 53 87 79 65 60 82 73 37 62 33 26 12 10 4 352 11 38 190 268 267 287 201 172 158 156 157 160 167 174 179 187 199 194 186 179 192 211 230 256 274
194 187 169 143 93 80 79 56 84 95 89 97 78 62 50 33 27 32 42 56 54 29 5 357 349 351 359 9 23 41 61 86 83 116 165 170 173 169 170 165 168 171 171 169 169 176 190 199 211 230 248 265 285 290
139 138 95 67 92 55 44 58 77 45 84 20 92 68 41 30 18 54 78 63 57 3 358 360 354 352 349 344 317 310 291 219 132 162 154 169 163 157 160 164 160 149 154 162 177 194 214 228 239 243 251 271 286 291
108 62 40 44 35 62 60 38 50 62 59 37 50 84 33 341 360 62 73 49 6 6 12 15 6 1 11 360 352 329 129 126 132 145 132 123 144 141 138 140 145 145 163 190 213 233 234 227 230 237 260 279 291 294
87 13 22 13 20 30 36 18 17 44 61 21 65 51 5 350 70 55 58 358 0 9 12 15 12 12 16 26 58 97 118 121 117 120 115 112 113 119 128 143 148 165 191 214 236 239 229 221 231 255 278 291 296 298
69 11 36 343 6 40 355 58 33 23 11 58 26 320 348 49 59 42 345 352 353 350 358 13 27 51 59 75 94 106 107 111 113 117 114 117 124 123 138 190 214 236 287 279 269 249 246 253 263 276 284 292 298 303
53 350 15 28 1 351 47 30 22 38 48 25 351 349 15 63 52 317 349 352 350 352 12 41 64 71 72 77 84 89 81 81 86 87 91 93 87 38 298 289 291 293 290 281 282 274 268 271 278 285 290 293 297 300
64 26 28 339 28 30 92 47 34 32 5 348 299 33 67 43 327 330 327 338 357 30 65 64 71 74 75 77 73 81 86 73 82 99 88 75 74 70 48 23 1 335 311 300 296 291 289 287 289 291 293 295 296 298
35 355 355 10 52 52 42 32 42 24 353 3 43 67 77 44 12 11 19 27 40 60 67 66 64 70 73 67 56 54 50 53 181 174 132 130 145 2 335 324 318 314 310 306 302 300 297 295 295 294 293 294 296 297
2 359 3 25 51 36 4 21 31 49 58 76 96 107 88 59 49 58 61 62 65 62 60 55 49 54 59 61 62 65 69 61 55 42 16 345 332 324 320 315 312 309 306 303 300 295 291 288 288 286 287 290 292 294
353 350 39 47 79 41 37 75 81 83 87 91 109 112 113 90 65 56 53 56 61 62 59 52 50 50 54 52 41 13 349 343 339 332 322 313 307 305 304 304 304 303 300 298 296 295 294 294 294 295 295 296 296 297
2 22 13 58 51 37 36 41 70 88 90 82 75 104 110 96 67 35 17 32 34 35 34 32 29 27 23 358 341 337 334 329 320 311 305 301 299 298 298 299 302 302 301 301 300 299 299 299 299 299 300 300 300 300
6 19 38 57 30 30 5 12 93 103 79 85 75 77 79 82 82 55 31 25 16 10 7 4 5 5 351 345 334 309 303 309 312 306 301 298 297 297 298 301 299 295 296 296 295 296 296 297 298 299 299 299 299 299
Wind_Speed_850mb
63 62 58 58 55 50 60 44 44 51 47 44 39 38 41 42 39 37 32 31 34 11 5 17 10 14 20 21 10 21 13 0 5 6 8 8 6 13 4 7 14 14 16 9 5 5 15 26 12 13 12 11 15 23
65 58 66 60 57 57 57 59 62 55 52 48 42 45 48 45 43 44 37 35 34 17 7 25 26 18 27 34 33 51 14 17 23 7 1 6 3 3 6 7 3 3 14 12 22 14 11 38 24 52 52 37 35 39
66 63 59 63 51 53 62 63 54 59 56 52 52 51 51 62 59 54 48 40 35 24 25 35 29 26 31 29 29 22 13 21 22 16 17 6 7 7 7 8 4 9 15 9 9 12 23 32 50 40 38 49 57 52
65 65 62 67 55 51 48 42 51 56 62 50 52 52 51 46 52 51 57 48 39 12 8 12 19 35 46 43 41 40 29 37 21 26 10 6 6 17 8 7 9 20 14 7 12 30 36 36 49 62 72 71 69 65
66 65 66 64 59 60 61 51 41 32 36 45 55 52 45 49 52 52 50 56 51 34 10 3 17 37 35 54 57 49 49 44 41 14 4 5 11 7 1 4 12 43 25 11 17 51 41 43 59 65 56 60 55 49
67 67 61 64 64 60 59 65 50 46 35 33 31 32 39 46 46 38 30 62 57 54 12 5 20 29 35 44 58 74 65 52 39 19 8 12 11 24 7 9 59 52 57 71 51 75 62 72 73 74 71 74 67 59
59 64 65 64 61 58 57 58 63 59 54 48 41 38 33 28 33 31 7 6 37 62 20 6 6 18 45 49 52 51 57 42 35 17 18 15 13 30 6 26 18 39 61 68 70 65 58 76 56 69 59 56 57 60
50 69 60 60 59 58 61 56 56 53 47 40 35 33 33 34 33 36 44 15 32 49 14 6 4 0 26 19 14 29 26 35 29 23 12 15 19 16 16 4 43 73 79 63 73 72 76 76 67 52 56 59 57 53
38 37 56 57 57 53 47 48 47 51 48 42 34 27 28 34 33 36 32 36 36 29 5 7 9 9 30 11 18 16 25 8 19 12 10 21 8 15 18 32 52 77 71 72 66 59 56 58 62 61 57 56 55 50
38 48 46 68 58 52 45 41 41 35 34 33 30 16 13 26 30 21 25 26 31 27 27 8 12 4 18 8 6 9 6 5 7 9 22 10 14 80 59 47 60 76 81 64 60 59 58 56 55 55 55 49 45 44
26 39 30 60 51 50 45 41 38 37 37 39 22 23 16 29 38 24 17 16 15 9 22 25 42 9 22 7 6 16 6 7 7 9 14 8 13 45 72 80 99 104 89 72 68 63 60 56 51 41 43 43 43 41
1 30 54 56 49 44 44 43 39 41 34 29 20 19 25 21 17 11 11 6 10 13 13 11 17 36 26 17 7 14 9 7 11 11 8 7 23 60 60 79 94 82 79 78 68 61 53 44 40 36 38 38 35 34
19 33 37 32 30 29 27 34 41 46 39 35 18 20 13 13 11 9 19 5 6 6 22 20 5 24 16 18 7 10 14 12 15 10 8 11 36 54 65 67 70 65 64 56 50 45 41 37 32 30 30 32 32 30
4 8 21 24 24 23 24 31 37 43 42 15 15 12 9 7 7 7 10 9 12 19 43 31 12 8 13 9 6 8 7 7 10 9 15 16 51 66 48 52 60 64 54 49 44 38 34 32 30 29 29 27 26 24
5 12 16 12 14 21 28 34 40 54 19 10 9 9 9 7 3 0 4 5 9 18 40 13 7 11 4 8 7 7 5 8 10 11 8 11 23 32 47 52 53 49 45 39 34 32 31 28 26 24 23 21 19 18
4 7 13 14 26 22 20 28 41 30 21 21 13 6 4 6 6 4 4 6 7 26 20 9 6 7 10 7 9 14 13 14 9 7 8 19 19 19 23 31 32 30 32 30 27 26 24 22 19 18 16 15 15 17
8 3 3 9 17 25 30 24 17 13 8 9 3 15 21 7 11 14 16 10 8 14 3 3 8 12 3 5 6 7 9 5 1 3 4 3 6 10 17 20 20 23 19 18 19 19 18 17 17 17 15 14 14 13
5 7 4 8 15 22 24 19 7 2 7 8 4 4 9 11 15 14 18 20 19 16 8 5 4 7 6 7 6 2 8 3 6 5 7 11 15 17 17 16 15 14 16 17 17 17 17 15 12 10 8 9 10 11
5 9 16 14 14 15 12 9 4 7 5 5 6 5 4 3 9 10 13 17 17 12 12 6 5 4 3 2 2 5 6 4 1 3 3 9 10 12 13 15 16 16 17 16 16 15 13 11 9 6 6 7 6 6
7 8 14 11 14 6 8 8 7 9 4 6 7 5 5 5 6 7 7 10 12 4 4 4 4 5 6 6 7 6 6 5 2 3 3 9 13 16 17 17 15 15 15 14 12 10 9 8 7 6 5 4 3 3
21 20 9 10 7 9 10 7 9 8 8 7 9 6 5 7 7 7 8 8 10 11 4 9 8 8 7 5 4 3 4 2 3 6 8 12 17 17 18 19 18 16 13 11 9 10 10 9 7 7 6 4 5 6
18 15 12 7 7 9 12 13 10 8 6 8 6 6 8 4 7 9 8 16 11 10 10 11 10 9 6 6 4 3 3 2 2 3 5 11 19 18 17 15 14 14 13 13 12 10 8 7 6 6 6 5 6 7
24 17 8 9 8 10 6 7 5 7 7 1 4 5 4 4 5 6 10 11 10 22 21 14 12 9 6 4 2 1 1 1 1 3 9 10 15 15 15 15 15 13 11 9 8 8 8 7 7 6 5 4 6 8
14 10 13 12 17 4 4 8 7 7 7 6 4 5 4 6 11 8 7 7 17 27 19 14 13 9 6 5 4 1 2 5 6 10 14 12 13 18 20 15 12 11 8 6 6 6 6 5 4 3 4 7 9 11
8 21 15 13 16 9 10 8 7 7 6 6 4 4 4 8 5 7 5 13 25 30 25 17 15 11 8 6 5 6 9 11 13 13 19 19 15 13 12 9 7 5 4 4 6 7 6 7 6 6 8 11 13 14
16 19 12 7 11 7 7 5 7 5 5 5 4 6 6 4 9 6 4 23 23 26 25 19 19 15 15 13 13 14 15 14 12 11 11 10 9 8 3 2 3 1 2 4 6 8 9 9 11 12 13 15 18 20
11 10 14 17 9 5 6 7 3 6 9 9 6 10 5 9 7 4 14 20 31 25 12 10 14 17 18 16 13 11 10 9 8 7 5 3 2 1 2 4 4 4 5 6 7 8 10 14 17 18 20 20 21 25
11 21 8 23 11 15 6 6 8 8 6 13 4 12 7 6 2 16 13 24 19 13 12 13 14 14 14 13 11 8 7 6 5 7 9 8 8 8 6 6 5 6 6 8 10 12 15 18 21 23 27 31 32 32
12 27 12 8 8 14 13 8 4 7 12 7 4 6 6 9 20 19 18 17 16 14 12 14 15 12 10 8 8 7 5 4 2 4 5 6 4 4 6 9 12 15 17 18 20 23 26 29 32 37 40 44 47 50
17 29 11 10 8 9 8 11 7 10 18 20 26 43 35 36 44 36 33 30 28 28 25 21 17 13 13 10 11 11 11 11 11 8 6 7 10 13 15 17 20 24 28 31 34 35 36 40 44 47 52 56 58 60
20 18 6 11 7 8 11 13 18 18 15 19 25 23 18 28 52 56 53 49 46 41 38 37 33 26 20 18 14 8 8 10 14 16 18 21 24 27 31 34 37 41 44 46 49 50 52 54 54 56 58 59 60 59
23 15 8 5 5 10 13 8 5 7 7 6 7 10 11 9 10 21 48 30 40 42 41 42 38 25 19 18 18 19 22 27 29 29 31 33 36 39 42 45 46 48 49 49 52 54 55 56 58 59 61 63 63 62
5 10 11 6 5 6 16 10 3 6 8 6 7 13 15 9 10 10 38 41 34 35 38 40 44 43 28 30 27 28 34 44 44 42 42 43 46 48 51 52 53 56 57 59 61 61 62 64 66 68 69 70 70 68
Wind_Direction_850mb
250 248 249 244 236 235 234 229 225 225 219 213 208 205 207 212 209 212 227 213 209 225 218 210 187 169 140 159 138 152 99 227 66 119 145 192 160 214 131 183 175 157 160 192 139 214 275 195 120 173 207 202 222 243
240 246 243 246 239 232 229 234 237 234 218 212 225 222 207 205 204 211 216 206 206 211 238 220 224 193 204 199 168 165 174 159 165 109 193 105 197 73 156 226 120 234 192 183 190 203 229 192 210 221 240 245 244 240
241 237 235 234 233 235 235 235 222 225 228 229 229 224 226 213 209 207 217 214 204 224 267 252 235 215 213 203 205 158 205 172 183 158 157 176 189 120 152 238 132 258 179 212 84 221 226 213 225 235 241 255 270 263
239 235 230 231 227 230 235 240 229 225 223 216 222 226 218 215 217 211 217 218 203 158 214 246 225 229 227 218 214 212 222 199 191 178 157 154 160 187 192 172 183 212 161 190 266 267 258 249 249 260 270 274 271 272
235 233 233 233 229 233 231 233 227 223 228 218 216 220 220 222 225 212 218 232 228 202 196 301 243 238 227 214 216 218 223 209 178 165 142 205 151 127 30 115 239 225 233 224 241 253 245 256 268 270 267 271 268 271
235 229 231 226 221 226 225 225 226 224 214 215 211 219 219 219 224 219 218 231 231 221 215 208 230 213 213 218 219 218 218 206 196 184 176 214 197 171 174 218 241 241 247 247 246 257 262 266 272 270 267 271 265 272
225 228 224 221 223 224 221 217 224 229 218 224 229 224 222 223 215 209 203 205 211 215 212 197 249 208 212 217 218 217 216 210 208 204 208 191 164 190 196 239 228 245 255 256 254 257 260 264 254 266 267 269 269 268
239 217 216 217 219 219 221 215 213 206 203 205 208 210 214 216 224 230 241 229 178 190 206 188 231 216 191 180 177 189 198 202 209 212 205 197 170 196 239 215 240 252 258 258 259 258 256 265 266 263 267 268 262 260
230 227 217 213 210 205 207 209 200 187 194 196 204 212 213 217 217 224 225 229 239 222 233 167 163 225 165 138 168 171 177 195 195 202 193 167 175 220 219 212 233 248 244 248 261 264 260 258 267 271 268 262 257 257
253 232 228 203 197 193 196 198 203 191 185 178 186 179 201 216 206 189 192 198 206 216 209 204 191 181 163 133 124 120 192 204 194 224 152 211 229 240 238 241 247 253 255 248 245 252 258 259 263 265 259 257 251 247
240 217 215 174 175 178 178 180 179 177 173 175 174 193 188 165 166 182 200 192 179 199 198 215 188 143 176 138 165 197 181 177 191 237 181 196 241 242 241 241 246 252 257 255 256 262 262 266 267 258 250 246 247 252
12 176 159 162 154 160 172 175 176 182 185 182 168 160 176 194 187 194 180 155 186 209 190 160 187 189 168 166 137 174 181 183 220 142 160 218 245 247 244 242 246 249 252 255 255 254 252 247 250 246 240 240 242 243
116 117 124 134 153 165 173 179 181 197 189 167 178 178 198 194 204 216 170 203 173 181 169 160 157 161 144 176 180 180 193 205 112 183 216 223 245 253 247 245 245 246 245 241 235 228 231 234 234 232 229 228 232 234
60 100 134 162 170 177 182 184 183 190 179 170 164 192 205 197 226 180 183 181 207 182 175 163 120 147 164 173 172 205 192 128 197 203 222 236 243 254 256 242 235 234 227 222 221 222 225 227 227 225 223 223 227 231
149 167 170 172 192 199 197 196 189 192 174 166 171 206 206 216 234 242 195 171 181 176 165 120 106 149 185 206 198 95 150 214 214 223 231 295 288 266 249 234 224 219 214 212 213 217 221 221 220 219 218 219 224 241
222 191 172 201 198 195 206 206 208 214 184 174 192 118 91 74 314 128 71 106 133 161 145 133 163 189 206 185 161 202 164 209 235 214 302 315 302 270 237 218 205 201 196 198 204 209 210 211 214 219 223 229 242 256
37 75 315 217 223 209 208 203 203 211 220 190 150 174 172 156 177 164 150 146 154 162 192 158 186 214 112 218 219 169 200 226 131 230 241 214 191 156 177 182 187 176 188 192 192 196 204 207 210 213 223 242 255 267
280 207 76 186 210 195 182 193 233 180 65 57 88 124 161 145 148 156 162 168 160 178 162 222 350 219 210 193 249 306 25 103 138 155 147 147 119 125 140 152 160 173 181 183 185 188 192 198 208 222 244 266 282 295
290 238 224 207 191 181 161 154 155 99 84 69 85 105 141 148 180 200 203 198 188 171 158 166 198 204 219 49 293 19 47 31 36 256 154 112 136 146 153 153 158 162 165 168 169 175 185 197 213 229 244 255 271 289
162 246 269 219 192 140 100 72 93 97 117 115 107 99 79 86 143 154 168 183 171 147 74 39 50 14 8 6 353 340 356 345 148 143 148 149 150 147 142 141 147 157 164 167 174 184 190 196 206 213 218 219 235 267
255 265 242 181 142 90 89 87 74 80 103 93 98 75 53 87 79 65 60 82 73 37 62 33 26 12 10 4 352 11 38 190 268 267 287 201 172 158 156 157 160 167 174 179 187 199 194 186 179 192 211 230 256 274
194 187 169 143 93 80 79 56 84 95 89 97 78 62 50 33 27 32 42 56 54 29 5 357 349 351 359 9 23 41 61 86 83 116 165 170 173 169 170 165 168 171 171 169 169 176 190 199 211 230 248 265 285 290
139 138 95 67 92 55 44 58 77 45 84 20 92 68 41 30 18 54 78 63 57 3 358 360 354 352 349 344 317 310 291 219 132 162 154 169 163 157 160 164 160 149 154 162 177 194 214 228 239 243 251 271 286 291
108 62 40 44 35 62 60 38 50 62 59 37 50 84 33 341 360 62 73 49 6 6 12 15 6 1 11 360 352 329 129 126 132 145 132 123 144 141 138 140 145 145 163 190 213 233 234 227 230 237 260 279 291 294
87 13 22 13 20 30 36 18 17 44 61 21 65 51 5 350 70 55 58 358 0 9 12 15 12 12 16 26 58 97 118 121 117 120 115 112 113 119 128 143 148 165 191 214 236 239 229 221 231 255 278 291 296 298
69 11 36 343 6 40 355 58 33 23 11 58 26 320 348 49 59 42 345 352 353 350 358 13 27 51 59 75 94 106 107 111 113 117 114 117 124 123 138 190 214 236 287 279 269 249 246 253 263 276 284 292 298 303
53 350 15 28 1 351 47 30 22 38 48 25 351 349 15 63 52 317 349 352 350 352 12 41 64 71 72 77 84 89 81 81 86 87 91 93 87 38 298 289 291 293 290 281 282 274 268 271 278 285 290 293 297 300
64 26 28 339 28 30 92 47 34 32 5 348 299 33 67 43 327 330 327 338 357 30 65 64 71 74 75 77 73 81 86 73 82 99 88 75 74 70 48 23 1 335 311 300 296 291 289 287 289 291 293 295 296 298
35 355 355 10 52 52 42 32 42 24 353 3 43 67 77 44 12 11 19 27 40 60 67 66 64 70 73 67 56 54 50 53 181 174 132 130 145 2 335 324 318 314 310 306 302 300 297 295 295 294 293 294 296 297
2 359 3 25 51 36 4 21 31 49 58 76 96 107 88 59 49 58 61 62 65 62 60 55 49 54 59 61 62 65 69 61 55 42 16 345 332 324 320 315 312 309 306 303 300 295 291 288 288 286 287 290 292 294
353 350 39 47 79 41 37 75 81 83 87 91 109 112 113 90 65 56 53 56 61 62 59 52 50 50 54 52 41 13 349 343 339 332 322 313 307 305 304 304 304 303 300 298 296 295 294 294 294 295 295 296 296 297
2 22 13 58 51 37 36 41 70 88 90 82 75 104 110 96 67 35 17 32 34 35 34 32 29 27 23 358 341 337 334 329 320 311 305 301 299 298 298 299 302 302 301 301 300 299 299 299 299 299 300 300 300 300
6 19 38 57 30 30 5 12 93 103 79 85 75 77 79 82 82 55 31 25 16 10 7 4 5 5 351 345 334 309 303 309 312 306 301 298 297 297 298 301 299 295 296 296 295 296 296 297 298 299 299 299 299 299